Weather Roundup
Issued by NWS Springfield, MO

Home | Current Version | Previous Version | Text Only | Print | Product List | Glossary On
Versions: 1 2 3 4 5 6 7 8 9 10 11 12 13 14 15 16 17 18 19 20 21 22 23 24 25 26 27 28 29 30 31 32 33 34 35 36 37 38 39 40 41 42 43 44 45 46 47 48 49 50
000
NZUS99 KSGF 290407
HRRSGF

HOURLY WEATHER
NATIONAL WEATHER SERVICE SPRINGFIELD MO
1000 PM CST FRI NOV 28 2014

......SGF CWA......

CITY           SKY/WX    TMP DP  RH WIND       PRES   REMARKS
SPRINGFIELD    MOCLDY    48  35  60 S14       29.88F
JOPLIN         CLOUDY    56  43  61 MISG      29.86F
WEST PLAINS    PTCLDY    44  33  65 S7        29.96F
ROLLA          MOCLDY    45  34  65 S17       29.85F
OSAGE BEACH    PTCLDY    48  34  57 S9        29.85F
BRANSON        CLOUDY    48  39  71 S5        29.94S

......SURROUNDING SGF CWA......

CITY           SKY/WX    TMP DP  RH WIND       PRES   REMARKS
CHANUTE        CLOUDY    55  43  63 S14       29.82F
PARSONS        CLOUDY    54  44  69 S9        29.85S
COFFEYVILLE    MOCLDY    56  45  66 S13       29.84F
EMPORIA        CLOUDY    50  38  63 S13       29.77F
GROVE OK       PTCLDY    57  45  62 S13G18    29.90F
ROGERS AR      PTCLDY    52  42  69 S13       29.93F
SILOAM SPRINGS PTCLDY    52  39  62 S13       29.94F
HARRISON AR    MOCLDY    50  40  68 S8        29.94F
NEAR YELLVILLE PTCLDY    50  36  57 S5        29.96F

......KANSAS AND MISSOURI......

CITY           SKY/WX    TMP DP  RH WIND       PRES   REMARKS
KANSAS CTY INT CLOUDY    52  37  56 S17       29.73F
DOWNTOWN KC    MOCLDY    54  37  52 SW13      29.75F
COLUMBIA       MOCLDY    48  35  60 S13       29.83F
SEDALIA        MOCLDY    53  37  54 SW16G24   29.80F
ST JOSEPH      MOCLDY    51  36  56 SW17      29.70F
ST LOUIS       MOCLDY    45  34  65 S9        29.91S
SPIRIT OF STL  MOCLDY    44  33  65 SE3       29.89S
KIRKSVILLE     CLOUDY    45  35  68 S9        29.76F
WICHITA        CLOUDY    50  40  68 S10       29.77F
TOPEKA         CLOUDY    55  37  50 S8        29.75S
OLATHE         CLOUDY    51  37  58 S13       29.76F

......TENNESSEE......

CITY           SKY/WX    TMP DP  RH WIND       PRES   REMARKS
MEMPHIS        CLEAR     49  26  41 S12       30.10F
NASHVILLE      PTCLDY    40  21  46 SE6       30.16S

......ARKANSAS.......

CITY           SKY/WX    TMP DP  RH WIND       PRES   REMARKS
FAYETTEVILLE   PTCLDY    51  42  71 S13       29.94F
FT SMITH       CLEAR     45  38  76 NE5       29.98F
LITTLE ROCK    PTCLDY    48  35  60 S9        30.06F

......OKLAHOMA.......

CITY           SKY/WX    TMP DP  RH WIND       PRES   REMARKS
TULSA          PTCLDY    58  48  69 S16       29.87F
PONCA CITY     PTCLDY    55  42  61 S16       29.79F
MCALESTER      CLEAR     59  49  69 S10G18    29.93F
OKLAHOMA CITY  PTCLDY    56  45  66 S14       29.84F

......IOWA............

CITY           SKY/WX    TMP DP  RH WIND       PRES   REMARKS
DES MOINES     PTCLDY    38  30  73 SE10      29.68F WCI  31
QUAD CITIES    CLEAR     29  26  89 E8        29.82F WCI  21

......ILLINOIS........

CITY           SKY/WX    TMP DP  RH WIND       PRES   REMARKS
QUINCY         MOCLDY    44  33  65 S13       29.80F
CHICAGO        CLOUDY    33  29  85 S8        29.91F WCI  26



USA.gov is the U.S. government's official web portal to all federal, state and local government web resources and services.